STARLINK-31538, 59525

Orbit data source: Space-Track

STARLINK-31538, 59525 is a payload satellite owned by SpaceX/Seattle (US) in LEO that was launched on Wed, 17 Apr 2024 UTC via an FALCON 9 launch vehicle from the Air Force Eastern Test Range (AFETR). Payload-class satellites include a variety of spacecraft equipped with specific instruments for various scientific and technological missions. These include communications satellites like Starlink; space stations such as the ISS; scientific satellites like the Hubble; Earth observation satellites from companies like Planet Labs, Umbra, and HawkEye 360; GPS; miniature CubeSats for education and research; and military/defense satellites.

Loading next visibility...
Identifier
59525, 2024-073Q
Orbit
LEO
Country
Flag of USUS
Related business
Manufacturer
SpaceX/Seattle
Mission
Operational Commercial Communications
Bus & Motor
STARLINK V2M, Unknown motor
Mass
730 kg wet, ~700 kg dry
Launch date (UTC)
2024-04-17 (2 years ago)
Launch vehicle
FALCON 9
Launch site
Air Force Eastern Test Range (AFETR)
Object type
Payload
Rocket body
Debris
Shape & HBR
Box + 2 Pan, 17.7 m
Radar Cross Section
33.884 m², Large (>1 m²)

Expand to show TLE details & history
Last TLE update: 2 days ago

TLE from 2 days ago
0 STARLINK-31538
1 59525U 24073Q   26170.99201708 -.00000104  00000-0  57283-5 0  9990
2 59525  43.0056 100.0834 0001125 267.1241  92.9482 15.27576080121823
Epoch: 2026-06-19T23:48Z
TLE epoch observation values (Epoch: 2026-06-19T23:48:30.275Z)
Latitude
-0.00003°
Longitude
-165.25582°
Altitude
482.877 km
Speed
7.626 km/s
True Right ascension
06h 40m 20s
True Declination
0° 00' 00"
Sunlit
Object was in daylight at epoch
Visualization orbit readout
Latitude
Unknown
Longitude
Unknown
Altitude
Unknown
Speed
Unknown
Apparent Right ascension
Unknown
Apparent Declination
Unknown
Sunlit
N/A
Visualization observer readout
Local Sidereal Time
15:45:02
Azimuth
Unknown
Elevation
Unknown
Doppler factor
Unknown
Orbital elements
Apogee altitude
485.777 km
Perigee altitude
484.233 km
Semi-major axis
6,863.142 km
Eccentricity
0.00011
Inclination
43.0056°
RAAN
100.0834°
Arg. of periapsis
267.1241°
True anomaly
92.96107°
Mean anomaly
92.9482°
Eccentric anomaly
92.95464°
Mean motion
3.81732 °/min
Orbital period
94.31 mins
BSTAR
0.0000057283
Loading maneuver chart data...
Computing Atmospheric mass density...
Loading historical data...
Loading historical data...
Loading historical data...
Loading historical data...
Loading historical data...
Loading historical data...
Loading historical data...

Documentation

Showing up to 5 results
|